Home   Weather   Bangalore   Past weeks

Flag for India Past Weather in Bangalore, Karnataka, India — March 2018

Now
79 °F

Scattered clouds.


Feels Like: 81 °F
Forecast: 69 / 78 °F
Wind: 17 mph from Southwest

Location: Bangalore / Hindustan

Current Time: Aug 17, 2018 at 1:12:20 pm

Latest Report: Aug 17, 2018 at 12:30 pm


Visibility: N/A

Pressure: 29.80 "Hg (26.96 "Hg at 876m altitude)

Humidity: 70%

Dew Point: 68 °F

Location of BangaloreLocation

March 2018 Weather in Bangalore — Graph

°F

High & Low Weather Summary for March 2018

 TemperatureHumidityPressure
High93 °F (Mar 21, 2:30 pm)100% (Mar 10, 8:30 am)30.09 "Hg (Mar 10, 8:30 am)
Low61 °F (Mar 2, 6:00 am)13% (Mar 5, 4:30 pm)29.83 "Hg (Mar 16, 3:30 pm)
Average80 °F49%29.97 "Hg
* Reported Mar 1 5:30 am — Mar 31 11:30 pm, Bangalore. Weather by CustomWeather, © 2018

Note: Actual official high and low records may vary slightly from our data, if they occured in-between our weather recording intervals... More about our weather records

Advertising

Bangalore Weather History for March 1, 2018

Scroll right to see more
 ConditionsComfort  
Time TempWeatherWind HumidityBarometerVisibility
5:30 am
Thu, Mar 1
63 °FClear.No wind83%29.98 "Hg5 mi
8:30 am72 °FClear.6 mph57%30.04 "Hg5 mi
9:00 am73 °FClear.6 mph50%30.04 "Hg5 mi
9:30 am77 °FClear.8 mph39%30.07 "Hg5 mi
10:00 am79 °FSunny.8 mph32%30.07 "Hg10 mi
10:30 am81 °FSunny.10 mph26%30.07 "Hg10 mi
11:00 am82 °FSunny.12 mph20%30.04 "Hg10 mi
11:30 am82 °FSunny.12 mph20%30.04 "Hg10 mi
12:00 pm84 °FSunny.14 mph18%30.01 "Hg10 mi
12:30 pm84 °FSunny.12 mph18%30.01 "Hg10 mi
1:00 pm86 °FSunny.8 mph15%29.98 "Hg10 mi
1:30 pm86 °FSunny.16 mph15%29.98 "Hg10 mi
2:00 pm88 °FSunny.16 mph15%29.95 "Hg10 mi
2:30 pm88 °FSunny.12 mph15%29.92 "Hg10 mi
3:00 pm88 °FSunny.6 mph15%29.92 "Hg10 mi
3:30 pm88 °FSunny.14 mph15%29.89 "Hg10 mi
4:30 pm88 °FSunny.12 mph15%29.89 "Hg10 mi
5:00 pm86 °FSunny.9 mph15%29.89 "Hg10 mi
5:30 pm84 °FSunny.12 mph16%29.92 "Hg10 mi
6:30 pm82 °FSunny.8 mph21%29.92 "Hg10 mi
7:30 pm77 °FClear.8 mph28%29.95 "Hg5 mi
8:30 pm77 °FClear.8 mph28%29.98 "Hg5 mi
9:30 pm73 °FClear.9 mph33%30.01 "Hg5 mi
10:30 pm73 °FClear.8 mph36%30.01 "Hg5 mi
11:30 pm72 °FClear.6 mph38%30.01 "Hg5 mi
Weather by CustomWeather, © 2018

See weather overview